Weather History for KVOK - July, 2013

Change the Weather History Date:

Thursday, July 4, 2013

  Actual Average Record
Temperature  
Mean Temperature 68 °F -  
Max Temperature 84 °F 77 °F 100 °F (2012)
Min Temperature 53 °F 62 °F 43 °F (2014)
Cooling Degree Days 2    
Growing Degree Days 18 (Base 50)    
Moisture  
Dew Point 57 °F    
Average Humidity 87    
Maximum Humidity 100    
Minimum Humidity 42    
Precipitation  
Precipitation 0.00 in - - ()
Sea Level Pressure  
Sea Level Pressure 30.03 in    
Wind  
Wind Speed 4 mph (SE)    
Max Wind Speed 10 mph    
Max Gust Speed -    
Visibility 8 miles    
Events      
Averages and records for this station are not official NWS values.
T = Trace of Precipitation, MM = Missing Value Source: NWS Daily Summary

Daily Weather History Graph

Daily Weather History Graph

Search for Another Location

Airport or City:

Trip Planner

Search our weather history database for the weather conditions in past years. The results will help you decide how hot, cold, wet, or windy it might be!

Date:

Astronomy

Jul. 04, 2013 Rise Set
Actual Time 5:24 AM CDT 8:46 PM CDT
Civil Twilight 4:48 AM CDT 9:22 PM CDT
Nautical Twilight 4:01 AM CDT 10:09 PM CDT
Astronomical Twilight 3:02 AM CDT 11:07 PM CDT
Moon 2:43 AM CDT (7/4) 5:48 PM CDT (7/4)
Length of Visible Light 16h 34m
Length of Day
15h 22m
Waning Crescent, 11% of the Moon is Illuminated
Jul 4
Waning Crescent
Jul 8
New
Jul 15
First Quarter
Jul 22
Full
Jul 29
Last Quarter

Hourly Weather History & Observations

Time (CDT) Temp. Heat Index Dew Point Humidity Pressure Visibility Wind Dir Wind Speed Gust Speed Precip Events Conditions
12:33 AM 53.6 °F - 53.6 °F 100% 30.04 in 9.0 mi SE 4.6 mph - N/A   Clear
12:43 AM 55.4 °F - 55.4 °F 100% 30.04 in 10.0 mi SSE 4.6 mph - N/A   Clear
12:53 AM 53.6 °F - 53.6 °F 100% 30.03 in 5.0 mi ESE 3.5 mph - N/A   Clear
12:58 AM 54.1 °F - 54.1 °F 100% 30.04 in 5.0 mi ESE 3.5 mph - N/A   Clear
1:03 AM 55.4 °F - 55.4 °F 100% 30.04 in 10.0 mi ESE 3.5 mph - N/A   Clear
1:23 AM 53.6 °F - 53.6 °F 100% 30.03 in 9.0 mi NE 1.2 mph - N/A   Clear
1:38 AM 57.2 °F - 57.2 °F 100% 30.03 in 10.0 mi Calm Calm - N/A   Clear
1:58 AM 55.6 °F - 55.6 °F 100% 30.04 in 10.0 mi ESE 3.5 mph - N/A   Clear
2:18 AM 55.4 °F - 55.4 °F 100% 30.03 in 7.0 mi ESE 2.3 mph - N/A   Clear
2:28 AM 57.2 °F - 57.2 °F 100% 30.03 in 10.0 mi ESE 3.5 mph - N/A   Clear
2:48 AM 53.6 °F - 53.6 °F 100% 30.02 in 8.0 mi ESE 5.8 mph - N/A   Clear
2:58 AM 54.9 °F - 54.9 °F 100% 30.03 in 5.0 mi East 5.8 mph - N/A   Clear
3:03 AM 55.4 °F - 55.4 °F 100% 30.03 in 2.5 mi East 4.6 mph - N/A   Clear
3:08 AM 55.4 °F - 55.4 °F 100% 30.02 in 4.0 mi East 3.5 mph - N/A   Clear
3:13 AM 55.4 °F - 55.4 °F 100% 30.02 in 6.0 mi Variable 1.2 mph - N/A   Clear
3:33 AM 57.2 °F - 57.2 °F 100% 30.02 in 10.0 mi Calm Calm - N/A   Clear
3:38 AM 57.2 °F - 57.2 °F 100% 30.02 in 9.0 mi East 3.5 mph - N/A   Clear
3:53 AM 55.4 °F - 55.4 °F 100% 30.02 in 5.0 mi ENE 2.3 mph - N/A   Clear
3:58 AM 55.6 °F - 55.6 °F 100% 30.03 in 4.0 mi NE 2.3 mph - N/A   Clear
4:03 AM 55.4 °F - 55.4 °F 100% 30.02 in 5.0 mi Variable 1.2 mph - N/A   Clear
4:13 AM 57.2 °F - 57.2 °F 100% 30.02 in 10.0 mi ESE 4.6 mph - N/A   Clear
4:23 AM 57.2 °F - 57.2 °F 100% 30.03 in 9.0 mi ESE 4.6 mph - N/A   Clear
4:38 AM 53.6 °F - 53.6 °F 100% 30.03 in 4.0 mi East 3.5 mph - N/A   Clear
4:48 AM 55.4 °F - 55.4 °F 100% 30.03 in 7.0 mi East 3.5 mph - N/A   Scattered Clouds
4:58 AM 56.3 °F - 56.3 °F 100% 30.04 in 9.0 mi ESE 5.8 mph - N/A   Mostly Cloudy
5:13 AM 57.2 °F - 57.2 °F 100% 30.04 in 8.0 mi East 3.5 mph - N/A   Mostly Cloudy
5:58 AM 58.1 °F - 58.1 °F 100% 30.06 in 9.0 mi Variable 1.2 mph - N/A   Mostly Cloudy
6:58 AM 62.8 °F - 60.1 °F 91% 30.06 in 10.0 mi Variable 4.6 mph - N/A   Mostly Cloudy
7:58 AM 65.3 °F - 59.7 °F 82% 30.07 in 10.0 mi SSW 8.1 mph - N/A   Partly Cloudy
8:58 AM 70.3 °F - 58.8 °F 67% 30.06 in 10.0 mi SSW 5.8 mph - N/A   Clear
9:58 AM 72.9 °F - 59.7 °F 63% 30.06 in 10.0 mi SW 8.1 mph - N/A   Partly Cloudy
10:58 AM 75.4 °F - 59.9 °F 58% 30.06 in 10.0 mi Variable 5.8 mph - N/A   Clear
11:58 AM 77.9 °F - 61.3 °F 57% 30.04 in 10.0 mi South 5.8 mph - N/A   Clear
2:53 PM 82.4 °F 82.5 °F 59.0 °F 45% 30.01 in 7.0 mi SW 9.2 mph - N/A   Partly Cloudy
3:53 PM 82.4 °F 82.0 °F 57.2 °F 42% 30.01 in 10.0 mi South 10.4 mph - N/A   Scattered Clouds
4:58 PM 81.1 °F 81.5 °F 59.4 °F 47% 30.01 in 10.0 mi Variable 6.9 mph - N/A   Partly Cloudy
5:58 PM 79.0 °F - 57.9 °F 48% 30.00 in 10.0 mi South 5.8 mph - N/A   Partly Cloudy
6:58 PM 78.1 °F - 59.0 °F 52% 30.00 in 10.0 mi South 4.6 mph - N/A   Scattered Clouds
7:58 PM 77.4 °F - 61.0 °F 57% 29.99 in 10.0 mi SSE 3.5 mph - N/A   Clear
8:58 PM 67.6 °F - 61.2 °F 80% 29.99 in 10.0 mi SSE 3.5 mph - N/A   Unknown
9:58 PM 69.6 °F - 60.6 °F 73% 30.00 in 10.0 mi South 3.5 mph - N/A   Clear
10:58 PM 62.4 °F - 59.5 °F 90% 30.00 in 10.0 mi SSE 4.6 mph - N/A   Clear
11:58 PM 60.3 °F - 59.0 °F 96% 30.01 in 10.0 mi SSE 4.6 mph - N/A   Clear